Back to catalog

STARLINK-2217

AliveCommunicationsVLEO
NORAD 48568·PAYLOAD·🇺🇸 United States

Launched May 15, 2021 from Cape Canaveral Space Force Station

Loading…

Next Passes (next 24 hours)

TLE

FreshSource: CelesTrak SupGP

Epoch: Sep 14, 2026, 14:31 UTC

1 48568C 21041R   26257.60534722  .00043929  00000+0  14122-2 0  2575
2 48568  53.1589 327.9754 0001090  77.5192 254.6004 15.31689824    11

Track STARLINK-2217 in real time with AllMySat

Download on the App Store